Location: Newark
(41.8083°N, 72.2500°W)
Time: 20:20:12
(UTC+00:00)

Courier 1B - Pass Details

Date: 07 December 2021
Orbit: 962 x 1209 km, 28.3° (Epoch: 19 January)

Event Time Altitude Azimuth Distance (km) Brightness Sun altitude
Rises 00:41:17 0° 257° (WSW) 3,949 11.6 -37.1°
Reaches altitude 10° 00:45:13 10° 238° (WSW) 2,937 10.5 -37.8°
Enters shadow 00:49:25 17° 202° (SSW) 2,405 9.6 -38.6°
Maximum altitude 00:49:31 17° 201° (SSW) 2,404 - -38.6°
Drops below altitude 10° 00:53:40 10° 163° (SSE) 2,821 - -39.4°
Sets 00:57:21 0° 144° (SE) 3,726 - -40.1°
